カタログに戻る

COSMOS 1275 DEB

運用中PO
NORAD 42097·DEBRIS·🇷🇺 Russia

打ち上げ Jun 4, 1981 から Plesetsk Cosmodrome

Loading…

次のパス (今後24時間)

TLE

最新Source: Space-Track

元期: Sep 14, 2026, 08:57 UTC

1 42097U 81053PH  26257.37357595  .00002271  00000-0  90651-3 0  9991
2 42097  82.8029 284.7846 0054405  58.1798 302.4668 14.27345013203541

AllMySatでCOSMOS 1275 DEBをリアルタイム追跡

Download on the App Store